Stations météo

réclame
Mon MeteoGroup
Lugo/Rozas, Espagne (8008): Température de l'air & dewpoint: 12.11.2018 18:00:00 - 18.11.2018 18:00:00 (CET)Lugo/Rozas, Espagne (8008): Vitesse du vent: 12.11.2018 18:00:00 - 18.11.2018 18:00:00 (CET)Lugo/Rozas, Espagne (8008): Direction du vent: 12.11.2018 18:00:00 - 18.11.2018 18:00:00 (CET)Lugo/Rozas, Espagne (8008): reduced air pressure: 12.11.2018 18:00:00 - 18.11.2018 18:00:00 (CET)Lugo/Rozas, Espagne (8008): visibility: 12.11.2018 18:00:00 - 18.11.2018 18:00:00 (CET)Lugo/Rozas, Espagne (8008): Quantités de précipitations: 12.11.2018 18:00:00 - 18.11.2018 18:00:00 (CET)
Date & Time tt [°C] td [°C] ff [km/h] ff [knt] dd ppp [hPa] vv [km] rr [mm]
18.11.2018 18:00:00 - - - - - - - -
18.11.2018 17:00:00 12,8 10,0 8 4 NE 1002,6 20 0,0
18.11.2018 16:00:00 14,6 10,4 8 4 NE 1002,6 20 -
18.11.2018 15:00:00 15,0 9,6 9 5 NE 1002,9 20 0,0
18.11.2018 14:00:00 14,4 9,8 9 5 ENE 1003,5 20 0,0
18.11.2018 13:00:00 14,3 9,7 8 4 NE 1004,2 20 -
18.11.2018 12:00:00 10,7 9,0 5 3 NE 1005,7 20 0,0
18.11.2018 11:00:00 8,9 8,6 2 1 N 1006,1 20 0,0
18.11.2018 10:00:00 5,8 5,5 2 1 SE 1007,1 11 -
18.11.2018 09:00:00 4,8 4,4 4 2 SE 1007,1 9 0,0
18.11.2018 08:00:00 4,4 4,0 2 1 SW 1007,2 7 0,0
18.11.2018 07:00:00 5,0 4,1 2 1 S 1007,3 8 -
18.11.2018 06:00:00 5,3 4,7 2 1 WSW 1007,3 9 0,0
18.11.2018 05:00:00 5,4 5,0 4 2 SW 1007,7 9 0,0
18.11.2018 04:00:00 5,3 4,6 2 1 S 1008,5 10 -
18.11.2018 03:00:00 5,8 5,2 2 1 NNE 1008,8 10 0,0
18.11.2018 02:00:00 5,8 5,1 2 1 S 1009,1 9 0,0
18.11.2018 01:00:00 5,7 4,8 2 1 SW 1009,6 9 -
18.11.2018 00:00:00 6,1 5,2 2 1 ESE 1009,9 11 0,0
17.11.2018 23:00:00 6,5 4,8 2 1 NW 1010,4 12 0,0
17.11.2018 22:00:00 8,2 6,2 8 4 SE 1010,3 17 -
17.11.2018 21:00:00 8,4 6,4 4 2 SE 1010,7 14 0,0
17.11.2018 20:00:00 9,7 7,0 2 1 S 1010,7 11 0,0
17.11.2018 19:00:00 12,0 7,7 4 2 N 1010,4 20 -
17.11.2018 18:00:00 14,8 8,3 2 1 SSE 1009,9 20 0,0
17.11.2018 17:00:00 16,7 7,9 4 2 SE 1009,9 20 0,0
17.11.2018 16:00:00 18,3 7,7 8 4 SSE 1009,5 20 -
17.11.2018 15:00:00 19,6 8,3 5 3 S 1009,5 20 0,0
17.11.2018 14:00:00 19,0 8,0 11 6 SSE 1010,5 16 0,0
17.11.2018 13:00:00 18,5 8,5 11 6 SSE 1011,5 19 -
17.11.2018 12:00:00 16,7 9,1 13 7 SSE 1012,6 20 0,0
17.11.2018 11:00:00 10,0 8,8 4 2 SE 1014,4 19 0,0
17.11.2018 10:00:00 6,0 5,4 2 1 NW 1015,1 12 -
17.11.2018 09:00:00 3,2 2,6 2 1 ESE 1015,5 4,5 0,0
17.11.2018 08:00:00 3,6 3,0 4 2 WNW 1015,1 4,3 0,0
17.11.2018 07:00:00 4,1 3,5 2 1 SSE 1014,7 4,9 -
17.11.2018 06:00:00 4,0 3,6 4 2 SE 1015,3 0,3 0,0
17.11.2018 05:00:00 5,4 3,7 2 1 NNW 1014,9 4,7 0,0
17.11.2018 04:00:00 5,0 4,3 2 1 SSE 1015,6 2,5 -
17.11.2018 03:00:00 5,6 4,6 2 1 NW 1015,5 - 0,0
17.11.2018 02:00:00 6,7 5,6 4 2 SSE 1015,3 7 0,0
17.11.2018 01:00:00 7,2 6,1 4 2 SSE 1015,7 7 -
17.11.2018 00:00:00 8,3 6,6 2 1 WNW 1015,4 11 0,0
16.11.2018 23:00:00 10,3 7,7 4 2 SSE 1015,4 19 0,0
16.11.2018 22:00:00 12,4 8,3 4 2 WNW 1015,4 20 -
16.11.2018 21:00:00 14,0 8,6 5 3 SSE 1014,9 20 0,0
16.11.2018 20:00:00 14,5 8,7 5 3 S 1014,8 20 0,0
16.11.2018 19:00:00 15,1 9,0 9 5 S 1014,8 20 -
16.11.2018 18:00:00 16,9 9,6 5 3 S 1014,2 20 0,0
16.11.2018 17:00:00 19,2 9,1 5 3 S 1013,7 20 0,0
16.11.2018 16:00:00 20,4 9,6 5 3 S 1013,7 20 -
16.11.2018 15:00:00 19,3 12,8 4 2 N 1014,4 20 0,0
16.11.2018 14:00:00 17,2 12,5 4 2 NNW 1015,7 20 0,0
16.11.2018 13:00:00 13,9 11,6 4 2 ENE 1017,4 25 -
16.11.2018 12:00:00 10,1 9,5 2 1 NW 1019,1 13 0,0
16.11.2018 11:00:00 7,0 6,7 2 1 W 1019,9 0,7 0,0
16.11.2018 10:00:00 4,9 4,6 0 0 N 1020,4 0,4 -
16.11.2018 09:00:00 3,8 3,4 2 1 SW 1020,6 0,4 0,0
16.11.2018 08:00:00 4,4 3,7 2 1 SSE 1019,8 2,4 0,0
16.11.2018 07:00:00 5,0 4,6 2 1 SSE 1019,5 0,2 -
16.11.2018 06:00:00 5,3 5,0 2 1 SW 1019,2 0,2 0,0
16.11.2018 05:00:00 5,0 4,4 2 1 SW 1019,6 0,2 0,0
16.11.2018 04:00:00 5,5 4,8 2 1 NNW 1019,5 0,4 -
16.11.2018 03:00:00 6,5 5,8 2 1 E 1019,5 0,4 0,0
16.11.2018 02:00:00 7,2 6,9 2 1 SE 1019,9 0,2 0,0
16.11.2018 01:00:00 7,0 6,6 2 1 ESE 1019,7 0,1 -
16.11.2018 00:00:00 7,4 6,7 2 1 NNE 1019,2 0,2 0,0
15.11.2018 23:00:00 8,7 7,6 2 1 N 1019,1 0,7 0,0
15.11.2018 22:00:00 10,3 9,2 4 2 SSE 1019,0 1,3 -
15.11.2018 21:00:00 11,6 10,5 5 3 SSE 1019,1 3,1 0,0
15.11.2018 20:00:00 13,1 11,7 2 1 SSE 1018,7 11 0,2
15.11.2018 19:00:00 13,8 12,2 5 3 WSW 1018,1 19 -
15.11.2018 18:00:00 15,4 12,3 4 2 SE 1017,2 20 0,0
15.11.2018 17:00:00 17,5 12,6 2 1 NW 1016,1 20 0,0
15.11.2018 16:00:00 17,7 12,4 2 1 N 1015,8 20 -
15.11.2018 15:00:00 16,8 11,9 2 1 N 1016,1 20 0,0
15.11.2018 14:00:00 13,5 10,7 4 2 E 1017,2 20 0,0
15.11.2018 13:00:00 10,5 9,6 4 2 NE 1018,6 15 -
15.11.2018 12:00:00 9,9 9,4 2 1 WNW 1019,0 20 0,0
15.11.2018 11:00:00 7,2 7,1 2 1 SW 1019,0 12 0,0
15.11.2018 10:00:00 5,2 4,9 4 2 NE 1019,6 25 -
15.11.2018 09:00:00 4,5 4,1 2 1 WNW 1019,4 6 0,0
15.11.2018 08:00:00 3,5 2,9 2 1 SSE 1018,9 5 0,0
15.11.2018 07:00:00 3,3 2,9 2 1 SE 1018,5 15 -
15.11.2018 06:00:00 3,4 3,0 4 2 S 1018,0 0,6 0,0
15.11.2018 05:00:00 3,8 3,2 2 1 WNW 1017,6 - 0,0
15.11.2018 04:00:00 4,0 3,3 2 1 SSW 1017,6 2,4 -
15.11.2018 03:00:00 4,4 3,7 2 1 SSE 1017,7 0,2 0,0
15.11.2018 02:00:00 5,0 4,3 2 1 WSW 1017,5 3,4 0,0
15.11.2018 01:00:00 5,7 5,0 4 2 SSE 1017,8 1,9 -
15.11.2018 00:00:00 6,3 5,7 2 1 SSE 1017,9 1,6 0,0
14.11.2018 23:00:00 6,8 5,7 0 0 N 1018,3 0,4 0,0
14.11.2018 22:00:00 7,6 6,8 4 2 SE 1018,4 4,0 -
14.11.2018 21:00:00 8,9 7,7 2 1 E 1018,3 6 0,0
14.11.2018 20:00:00 9,8 8,7 4 2 SSE 1018,4 6 0,0
14.11.2018 19:00:00 11,5 10,1 2 1 ESE 1018,1 17 -
14.11.2018 18:00:00 14,5 11,1 2 1 SE 1017,6 20 0,0
14.11.2018 17:00:00 16,6 11,7 2 1 ENE 1017,2 20 0,0
14.11.2018 16:00:00 16,8 11,5 4 2 N 1017,4 20 -
14.11.2018 15:00:00 16,0 11,2 2 1 N 1018,0 20 0,0
14.11.2018 14:00:00 14,0 10,2 4 2 N 1019,3 20 0,0
14.11.2018 13:00:00 10,6 8,4 4 2 NW 1020,7 25 -
14.11.2018 12:00:00 6,7 5,8 2 1 E 1022,5 11 0,0
14.11.2018 11:00:00 3,5 3,1 2 1 NNW 1023,6 2,1 0,0
14.11.2018 10:00:00 1,4 0,8 0 0 N 1024,3 0,5 -
14.11.2018 09:00:00 0,0 -0,4 2 1 SE 1024,3 0,7 0,0
14.11.2018 08:00:00 0,3 -0,3 0 0 N 1024,0 2,0 0,0
14.11.2018 07:00:00 0,0 -0,7 0 0 N 1024,1 8 -
14.11.2018 06:00:00 0,3 -0,4 2 1 SE 1024,4 0,7 0,0
14.11.2018 05:00:00 0,9 0,3 0 0 N 1024,5 0,2 0,0
14.11.2018 04:00:00 1,2 0,8 0 0 N 1024,8 0,5 -
14.11.2018 03:00:00 1,6 1,2 2 1 SE 1025,4 0,2 0,0
14.11.2018 02:00:00 1,6 0,9 2 1 W 1025,8 0,2 0,0
14.11.2018 01:00:00 2,0 1,1 0 0 N 1026,3 0,5 -
14.11.2018 00:00:00 2,7 2,1 2 1 ESE 1026,6 0,2 0,0
13.11.2018 23:00:00 3,9 3,2 2 1 W 1026,7 0,8 0,0
13.11.2018 22:00:00 4,6 4,2 2 1 SE 1026,6 0,1 -
13.11.2018 21:00:00 4,9 4,5 0 0 N 1026,6 0,1 0,0
13.11.2018 20:00:00 5,3 4,4 0 0 N 1026,4 0,2 0,0
13.11.2018 19:00:00 6,3 5,7 0 0 N 1026,0 0,1 -
13.11.2018 18:00:00 7,4 6,7 2 1 NW 1025,9 0,1 0,0
13.11.2018 17:00:00 8,5 7,0 4 2 NNE 1025,9 13 0,0
13.11.2018 16:00:00 8,0 6,9 4 2 E 1026,0 7 -
13.11.2018 15:00:00 7,0 6,1 4 2 ENE 1026,7 4,3 0,0
13.11.2018 14:00:00 6,8 5,9 4 2 WNW 1027,0 1,4 0,0
13.11.2018 13:00:00 6,5 6,1 4 2 NW 1027,5 0,4 -
13.11.2018 12:00:00 5,0 4,7 2 1 W 1028,7 1,7 0,0
13.11.2018 11:00:00 3,3 3,0 2 1 WSW 1029,3 0,3 0,0
13.11.2018 10:00:00 3,2 3,1 2 1 E 1028,9 0,3 -
13.11.2018 09:00:00 3,2 2,9 2 1 E 1028,5 0,2 0,0
13.11.2018 08:00:00 3,2 3,1 2 1 SSW 1027,8 0,2 0,0
13.11.2018 07:00:00 3,2 2,9 2 1 SSW 1027,3 0,1 -
13.11.2018 06:00:00 3,7 3,3 2 1 WSW 1027,4 1,6 0,0
13.11.2018 05:00:00 4,1 3,8 2 1 WNW 1027,0 0,2 0,0
13.11.2018 04:00:00 3,7 3,6 2 1 SE 1026,8 0,1 -
13.11.2018 03:00:00 2,5 2,1 2 1 SW 1026,7 0,1 0,0
13.11.2018 02:00:00 3,4 2,1 0 0 N 1025,8 3,2 0,0
13.11.2018 01:00:00 4,2 3,5 2 1 SE 1025,6 3,6 -
13.11.2018 00:00:00 4,9 3,9 4 2 S 1025,1 1,3 0,0
12.11.2018 23:00:00 5,8 4,8 5 3 SSE 1024,7 3,3 0,0
12.11.2018 22:00:00 6,8 5,7 4 2 S 1024,0 1,7 -
12.11.2018 21:00:00 6,5 5,6 4 2 SSE 1023,5 6 0,0
12.11.2018 20:00:00 6,4 4,9 5 3 SSE 1022,6 2,1 0,0
12.11.2018 19:00:00 8,2 5,8 4 2 SSE 1021,1 3,3 -
12.11.2018 18:00:00 11,4 7,3 2 1 S 1019,5 20 0,0

tt = Température de l'air
td = dewpoint
ff = Vitesse du vent
dd = Direction du vent
ppp = reduced air pressure
vv = visibility
rr = Quantités de précipitations

stations d'obs. à proximité